Location: Beccas
(43.4309°N, 0.1528°E)
Time: 00:40:05
(UTC+00:00)

Landsat 5 - Pass Details

Date: 15 October 2021
Orbit: 528 x 652 km, 98.2° (Epoch: 02 December)

Event Time Altitude Azimuth Distance (km) Brightness Sun altitude
Rises 17:39:24 0° 20° (NNE) 2,869 6.7 -5.0°
Reaches altitude 10° 17:41:40 10° 28° (NNE) 1,980 5.8 -5.4°
Maximum altitude 17:45:44 40° 99° (E) 924 4.0 -6.2°
Drops below altitude 10° 17:49:54 10° 169° (S) 2,024 6.2 -6.9°
Sets 17:52:14 0° 177° (S) 2,940 7.1 -7.3°
